Welcome to the New NWS' Forecast!
Most changes are behind the scenes, but click here for differences you might notice.
Latest weather observations around

Alexander City, Thomas C Russell Field Airport (KALX)

Using English Units (Switch to International System of Units)
Date/ Time (CDT) Wind (mph) Vis. (mi) Weather Sky Cond. Temp (°F) Rel. Humidity Wind Chill (°F) Heat Index (°F) Pressure Precip. (in)
Air Dwpt 6 hour Altimeter (inHg) Sea level (inHg) 1 hr 3 hr 6 hr
Max Min
Notice The following observation data may not be complete
Jul 23 02:35   10 Clear CLR          %              
Jul 23 02:15 Calm 10 Clear CLR 69 69     100%     29.79        
Jul 23 01:55 Calm 10 Clear CLR 70 70     100%     29.79        
Jul 23 01:35 Calm 10 Clear CLR 70 70     100%     29.79        
Jul 23 01:15 Calm 10 Clear CLR 71 71     100%   72 29.79        
Jul 23 00:55 Calm 10 Clear CLR 71 71     100%   73 29.79        
Jul 23 00:35 Calm 10 Clear CLR 72 72     99%   74 29.8        
Jul 23 00:15 Calm 10 Partly Cloudy SCT070 74 71     90%   76 29.81        
Jul 22 23:55 Calm 10 Partly Cloudy SCT070 75 71     89%   76 29.82        
Jul 22 23:35 WNW 3 10 Mostly Cloudy BKN070 74 72     92%   76 29.82        
Jul 22 23:15 Calm 10 Mostly Cloudy SCT049 BKN070 73 73     100%   74 29.83        
Jul 22 22:55 Calm 10 Partly Cloudy SCT080 73 73     99%   75 29.83        
Jul 22 22:35 Calm 10 Clear CLR 74 73     97%   75 29.84        
Jul 22 22:15 Calm 10 Clear CLR 74 72     94%   76 29.83        
Jul 22 21:55 W 3 10 Clear CLR 75 72     89%   77 29.83        
Jul 22 21:35 Calm 10 Clear CLR 76 72     89%   77 29.82        
Jul 22 21:15 NW 3 10 Clear CLR 78 72     83%   79 29.82        
Jul 22 20:55 NW 3 10 Clear CLR 78 73     86%   79 29.81        
Jul 22 20:35 Calm 10 Clear CLR 78 74     88%   79 29.8        
Jul 22 20:15 NW 3 10 Clear CLR 78 73     85%   80 29.8        
Jul 22 19:55 NW 3 10 Clear CLR 80 74     83%   84 29.79        
Jul 22 19:35 Calm 10 Clear CLR 82 73     74%   87 29.78        
Jul 22 19:15 WNW 3 10 Clear CLR 83 73     73%   89 29.78        
Jul 22 18:55 NW 3 10 Clear CLR 84 72     68%   90 29.78        
Jul 22 18:35 WNW 6 10 Clear CLR 85 71     63%   91 29.77        
Jul 22 18:15 NW 8 10 Partly Cloudy SCT065 SCT080 86 71     60%   91 29.77        
Jul 22 17:55 NNW 7 10 Clear CLR 87 71     59%   92 29.76        
Jul 22 17:35 NW 8 10 Clear CLR 87 70     58%   92 29.76        
Jul 22 17:15 NW 7 10 Clear CLR 87 71     59%   93 29.77        
Jul 22 16:55 NW 8 10 Clear CLR 88 71     58%   94 29.76        
Jul 22 16:35 NW 7 10 Clear CLR 88 72     58%   94 29.76        
Jul 22 16:15 WNW 7 10 Clear CLR 88 71     57%   94 29.77        
Jul 22 15:55 WNW 8 10 Clear CLR 88 72     60%   95 29.76        
Jul 22 15:35 WNW 8 10 Clear CLR 88 72     59%   95 29.76        
Jul 22 15:15 WNW 8 10 Clear CLR 88 71     58%   94 29.76        
Jul 22 14:55 NW 8 10 Clear CLR 88 72     60%   95 29.77        
Jul 22 14:35 NNW 11 10 Clear CLR 88 72     60%   95 29.77        
Jul 22 14:15 WNW 8 10 Clear CLR 88 73     61%   95 29.78        
Jul 22 13:55 NW 11 10 Partly Cloudy SCT049 SCT060 87 75     67%   97 29.79        
Jul 22 13:35 NW 8 10 Partly Cloudy SCT047 SCT060 88 75     66%   98 29.79        
Jul 22 13:15 NW 7 10 Partly Cloudy SCT045 87 75     68%   97 29.8        
Jul 22 12:55 WNW 7 10 Clear CLR 86 77     75%   98 29.82        
Jul 22 12:35 WNW 6 10 Clear CLR 86 77     75%   97 29.83        
Jul 22 12:15 W 8 10 Partly Cloudy SCT033 SCT041 86 77     75%   98 29.84        
Jul 22 11:55 WSW 5 10 Partly Cloudy SCT033 SCT050 85 77     77%   95 29.84        
Jul 22 11:35 NW 10 10 Partly Cloudy SCT033 SCT039 SCT050 85 77     76%   96 29.85        
Jul 22 11:15 W 7 10 Partly Cloudy SCT033 SCT039 SCT050 83 76     79%   92 29.85        
Jul 22 10:55 NW 9 10 Partly Cloudy SCT030 SCT036 84 77     79%   94 29.86        
Jul 22 10:35 NW 9 10 Partly Cloudy SCT030 SCT038 83 76     80%   92 29.86        
Jul 22 10:15 WNW 7 10 Clear CLR 83 76     81%   91 29.86        
Jul 22 09:55 WNW 8 10 Clear CLR 82 76     83%   89 29.87        
Jul 22 09:35 WNW 8 10 Clear CLR 81 75     81%   88 29.86        
Jul 22 09:15 WNW 6 10 Clear CLR 81 75     83%   87 29.86        
Jul 22 08:55 W 5 10 Clear CLR 80 75     87%   84 29.86        
Jul 22 08:35 W 6 10 Clear CLR 79 75     90%   82 29.85        
Jul 22 08:15 W 5 10 Clear CLR 77 76     96%   79 29.85        
Jul 22 07:55 W 3 10 Clear CLR 75 75     100%   77 29.85        
Jul 22 07:35 Calm 10 Clear CLR 73 73     100%   75 29.85        
Jul 22 07:15 Calm 10 Clear CLR 72 72     100%   73 29.85        
Jul 22 06:55 Calm 10 Clear CLR 70 70     100%   72 29.85        
Jul 22 06:35 Calm 10 Clear CLR 68 68     100%     29.86        
Jul 22 06:15 Calm 10 Partly Cloudy SCT001 68 68     100%     29.85        
Jul 22 05:55 Calm 10 Clear CLR 67 67     100%     29.85        
Jul 22 05:35 Calm 10 Clear CLR 67 67     100%     29.84        
Jul 22 05:15 Calm 7 Clear CLR 68 68     100%     29.84        
Jul 22 04:55 Calm 10 Clear CLR 68 68     100%     29.85        
Jul 22 04:35 Calm 5 Fog/Mist CLR 69 69     100%     29.84        
Jul 22 04:15 Calm 7 Clear CLR 68 68     100%     29.84        
Jul 22 03:55 Calm 5 Fog/Mist CLR 68 68     100%     29.84        
Jul 22 03:35 Calm 7 Clear CLR 69 69     100%     29.84        
Jul 22 03:15 Calm 2 Fog/Mist CLR 70 70     100%     29.84        
Jul 22 02:55 Calm 2 Fog/Mist CLR 70 70     100%     29.84        
Jul 22 02:35 Calm 7 Clear CLR 71 71     100%   72 29.85        
Jul 22 02:15 Calm 5 Fog/Mist SCT001 SCT075 71 71     100%   72 29.86        
Jul 22 01:55 Calm 10 Clear CLR 71 71     100%   73 29.85        
Jul 22 01:35 Calm 7 Clear CLR 71 71     100%   73 29.86        
Jul 22 01:15 Calm 10 Clear CLR 72 72     100%   73 29.86        
Jul 22 00:55 Calm 10 Partly Cloudy SCT050 SCT070 72 72     100%   73 29.87   0   1
Jul 22 00:35 Calm 10 Partly Cloudy SCT055 72 72     100%   73 29.88   0    
Jul 22 00:15 Calm 10 Partly Cloudy SCT055 SCT065 SCT120 72 72     100%   73 29.88        
Jul 21 23:55 Calm 10 Partly Cloudy SCT055 SCT065 SCT120 72 72     100%   73 29.88   0    
Jul 21 23:35 Calm 10 Partly Cloudy SCT007 SCT015 SCT055 72 72     100%   73 29.88   0    
Jul 21 23:15 Calm 10 Thunderstorms and Rain SCT005 SCT011 BKN035 72 72     100%   73 29.88   0    
Jul 21 22:55 NW 10 5 Thunderstorms and Heavy Rain SCT003 SCT009 BKN035 73 73     100%   75 29.91   0    
Jul 21 22:35 Calm 10 Thunderstorms and Rain SCT003 SCT011 SCT048 74 74     100%   75 29.86   0    
Jul 21 22:15 SE 10 1.75 Thunderstorms and Rain BKN005 BKN009 BKN018 74 74     100%   76 29.86   0    
Jul 21 21:55 SE 3 10 Thunderstorms SCT048 SCT060 SCT070 78 78     100%   81 29.87        
Jul 21 21:35 Calm 10 Mostly Cloudy SCT048 BKN060 78 78     99%   81 29.86        
Jul 21 21:15 SSE 3 10 Partly Cloudy SCT046 SCT050 SCT065 79 79     99%   84 29.85        
Jul 21 20:55 Calm 10 Mostly Cloudy SCT043 BKN050 BKN065 80 79     97%   86 29.85        
Jul 21 20:35 Calm 10 Partly Cloudy SCT043 SCT049 80 79     99%   86 29.85        
Jul 21 20:15 Calm 10 Clear CLR 81        %     29.85        
Jul 21 19:55 Calm 10 Clear CLR 83 79     89%   94 29.85        
Jul 21 19:35 SW 3 10 Clear CLR 84 80     86%   97 29.84        
Jul 21 19:15 SW 6 10 Clear CLR 85 80     83%   100 29.83        
Jul 21 18:55 WSW 6 10 Partly Cloudy SCT048 SCT050 86 80     81%   101 29.83        
Jul 21 18:35 WSW 5 10 Partly Cloudy SCT037 SCT044 SCT050 86 80     82%   101 29.83        
Jul 21 18:15 WSW 8 10 Clear CLR 86 80     81%   101 29.82        
Jul 21 17:55 WSW 8 10 Clear CLR 88 81     81%   107 29.82        
Jul 21 17:35 WSW 11 10 Partly Cloudy SCT038 SCT050 SCT065 88 81     80%   108 29.82        
Jul 21 17:15 SW 11 10 Partly Cloudy SCT038 SCT044 SCT050 88 81     78%   106 29.82        
Jul 21 16:55 WSW 9 10 Thunderstorms CLR 90 80     73%   107 29.81        
Jul 21 16:35 SW 11 10 Thunderstorms CLR 89 80     74%   106 29.82        
Jul 21 16:15 SW 11 10 Partly Cloudy SCT042 SCT050 90 80     73%   108 29.83        
Jul 21 15:55 SW 10 10 Partly Cloudy SCT034 SCT042 SCT049 89 81     77%   107 29.84        
Jul 21 15:35 SSW 7 10 Mostly Cloudy SCT030 SCT036 BKN060 88 81     81%   107 29.85        
Jul 21 15:15 SSW 5 10 Partly Cloudy SCT030 SCT038 88 82     82%   108 29.85        
Jul 21 14:55 S 5 10 Partly Cloudy SCT032 SCT040 89 83     80%   112 29.85        
Jul 21 14:35 SSE 5 10 Partly Cloudy SCT028 SCT039 89 82     80%   110 29.85        
Jul 21 14:15 SE 5 10 Partly Cloudy SCT028 88 81     81%   106 29.85        
Jul 21 13:55 ESE 3 10 Clear CLR 87 82     84%   107 29.86        
Jul 21 13:35 ESE 6 10 Mostly Cloudy SCT025 BKN032 85 82     91%   103 29.86        
Jul 21 13:15 NNE 3 10 Mostly Cloudy BKN023 BKN032 BKN039 85 81     86%   101 29.87        
Jul 21 12:55 Calm 10 Partly Cloudy SCT030 SCT037 86 81     84%   103 29.86       0
Jul 21 12:35 NE 5 10 Partly Cloudy SCT032 SCT041 85 82     89%   103 29.87        
Jul 21 12:15 ENE 3 10 Mostly Cloudy SCT018 SCT022 BKN032 84 81     92%   98 29.87        
Jul 21 11:55 Calm 10 Mostly Cloudy SCT018 BKN022 83 81     94%   98 29.88        
Jul 21 11:35 Calm 10 Partly Cloudy SCT013 83 81     94%   95 29.88        
Jul 21 11:15 Calm 10 Clear CLR 82 80     94%   94 29.89        
Jul 21 10:55 Calm 10 Clear CLR 82 80     96%   92 29.92   0    
Jul 21 10:35 Calm 10 Partly Cloudy SCT003 SCT007 SCT023 80 80     100%   86 29.92   0    
Jul 21 10:15 Calm 7 Mostly Cloudy SCT003 BKN025 BKN030 77 77     100%   79 29.94        
Jul 21 09:55 Calm 10 Cloudy SCT006 BKN024 OVC031 77 77     100%   79 29.95   0 0  
Jul 21 09:35 NE 5 2.5 Heavy Rain SCT006 SCT010 OVC017 77 77     100%   79 29.95   0    
Jul 21 09:15 ENE 3 10 Cloudy BKN017 OVC060 80 79     98%   86 29.95        
Jul 21 08:55 NNW 6 10 Partly Cloudy SCT019 SCT060 81 80     94%   91 29.94        
Jul 21 08:35 WNW 3 10 Clear CLR 81 80     97%   89 29.92        
Jul 21 08:15 WSW 6 10 Clear CLR 80 80     99%   87 29.91        
Jul 21 07:55 WSW 7 10 Clear CLR 79 79     100%   84 29.92        
Jul 21 07:35 Calm 10 Clear CLR 77 77     100%   79 29.93        
Jul 21 07:15 Calm 10 Clear CLR 76 76     100%   78 29.93        
Jul 21 06:55 Calm 10 Clear CLR 75 75     100%   77 29.93        
Jul 21 06:35 Calm 5 Fog/Mist CLR 74 74     100%   76 29.91        
Jul 21 06:15 Calm 7 Partly Cloudy SCT070 74 74     100%   76 29.91        
Jul 21 05:55 Calm 10 Partly Cloudy SCT070 74 74     100%   76 29.91        
Jul 21 05:35 Calm 10 Partly Cloudy SCT070 74 74     100%   76 29.91        
Jul 21 05:15 Calm 10 Clear CLR 74 74     100%   76 29.9        
Jul 21 04:55 Calm 10 Clear CLR 74 74     100%   76 29.89        
Jul 21 04:35 Calm 10 Clear CLR 74 74     100%   76 29.88        
Jul 21 04:15 Calm 10 Clear CLR 74 74     100%   75 29.88        
Jul 21 03:55 Calm 7 Clear CLR 73 73     100%   75 29.89        
Jul 21 03:35 Calm 7 Clear CLR 73 73     100%   75 29.89        
Jul 21 03:15 Calm 5 Fog/Mist CLR 74 74     100%   76 29.9        
Jul 21 02:55 Calm 7 Clear CLR 74 74     100%   76 29.91        
Jul 21 02:35 Calm 7 Clear CLR 74 74     100%   76 29.93        
Jul 21 02:15 Calm 10 Partly Cloudy SCT039 SCT050 75 75     100%   77 29.93        
Jul 21 01:55 Calm 10 Partly Cloudy SCT039 SCT050 SCT110 75 75     100%   77 29.95        
Jul 21 01:35 Calm 10 Partly Cloudy SCT040 SCT049 SCT110 74 74     100%   76 29.95        
Jul 21 01:15 Calm 10 Partly Cloudy SCT038 SCT048 74 74     100%   76 29.95        
Jul 21 00:55 Calm 7 Clear CLR 75 75     100%   77 29.96        
Jul 21 00:35 Calm 10 Clear CLR 75 75     100%   77 29.96        
Jul 21 00:15 Calm 10 Clear CLR 75 75     100%   77 29.96        
Jul 20 23:55 Calm 10 Clear CLR 75 75     100%   77 29.96        
Jul 20 23:35 Calm 10 Clear CLR 76 76     100%   78 29.95        
Jul 20 23:15 SW 3 10 Clear CLR 76 76     100%   78 29.96        
Jul 20 22:55 SSW 6 10 Clear CLR 77 77     100%   79 29.96        
Jul 20 22:35 Calm 10 Clear CLR 77 77     100%   79 29.97        
Jul 20 22:15 Calm 10 Clear CLR 76 76     100%   78 29.97        
Jul 20 21:55 Calm 10 Clear CLR 76 76     100%   78 29.97        
Jul 20 21:35 Calm 10 Clear CLR 76 76     100%   78 29.97        
Jul 20 21:15 Calm 10 Clear CLR 77 77     100%   79 29.97        
Jul 20 20:55 Calm 10 Clear CLR 78 78     100%   80 29.96        
Jul 20 20:35 Calm 10 Clear CLR 78 78     100%   81 29.96        
Jul 20 20:15 Calm 10 Clear CLR 79 79     100%   83 29.96        
Jul 20 19:55 Calm 10 Clear CLR 80 80     99%   88 29.95        
Jul 20 19:35 Calm 10 Clear CLR 81 80     96%   92 29.95        
Jul 20 19:15 Calm 10 Clear CLR 83 80     90%   94 29.94        
Jul 20 18:55 SSW 3 10 Clear CLR 85 80     86%   98 29.94        
Jul 20 18:35 SW 3 10 Clear CLR 85 79     82%   99 29.94        
Jul 20 18:15 SSW 3 10 Clear CLR 86 79     81%   99 29.94        
Jul 20 17:55 Calm 10 Partly Cloudy SCT042 SCT048 86 79     80%   99 29.94        
Jul 20 17:35 SW 3 10 Mostly Cloudy BKN040 BKN046 86 77     73%   98 29.95        
Jul 20 17:15 Calm 10 Partly Cloudy SCT040 88 77     70%   100 29.95        
Jul 20 16:55 Calm 10 Partly Cloudy SCT040 SCT050 SCT060 88 76     69%   99 29.95        
Jul 20 16:35 SSE 3 10 Partly Cloudy SCT040 SCT060 88 77     71%   100 29.95        
Jul 20 16:15 SE 3 10 Clear CLR 87 77     71%   99 29.96        
Jul 20 15:55 Calm 10 Partly Cloudy SCT038 88 77     71%   100 29.96        
Jul 20 15:35 Calm 10 Mostly Cloudy BKN038 BKN049 86 78     75%   98 29.96        
Jul 20 15:15 ESE 3 10 Partly Cloudy SCT038 SCT049 88 76     69%   99 29.96        
Jul 20 14:55 ENE 3 10 Partly Cloudy SCT035 SCT043 SCT049 87 76     70%   98 29.96        
Jul 20 14:35 Calm 10 Partly Cloudy SCT035 SCT043 87 77     73%   98 29.97        
Jul 20 14:15 SSW 3 10 Partly Cloudy SCT030 SCT038 86 77     76%   97 29.98        
Jul 20 13:55 Calm 10 Mostly Cloudy BKN030 84 77     80%   94 29.99        
Jul 20 13:35 S 3 10 Partly Cloudy SCT029 SCT035 85 77     78%   96 29.99        
Jul 20 13:15 NNW 3 10 Partly Cloudy SCT026 83 77     80%   93 30.01        
Jul 20 12:55 W 3 10 Clear CLR 83 78     83%   94 30.01        
Jul 20 12:35 SSW 3 10 Clear CLR 81 76     83%   88 30.01        
Jul 20 12:15 SSW 3 10 Partly Cloudy SCT023 81 76     86%   87 30.01        
Jul 20 11:55 Calm 10 Mostly Cloudy BKN021 80 76     89%   84 30.02        
Jul 20 11:35 Calm 10 Mostly Cloudy BKN018 78 76     91%   82 30.02        
Jul 20 11:15 Calm 10 Cloudy OVC016 78 76     93%   80 30.03        
Jul 20 10:55 ENE 3 10 Cloudy OVC014 77 75     94%   79 30.03        
Jul 20 10:35 Calm 10 Cloudy OVC012 77 75     93%   79 30.03        
Jul 20 10:15 Calm 10 Cloudy OVC010 76 75     96%   78 30.04        
Jul 20 09:55 E 3 10 Cloudy OVC010 75 74     98%   77 30.04        
Jul 20 09:35 NE 3 10 Cloudy OVC010 74 74     100%   76 30.03        
Jul 20 09:15 NE 5 10 Cloudy OVC008 75 74     99%   76 30.03        
Jul 20 08:55 E 3 10 Cloudy OVC008 74 74     100%   76 30.03        
Jul 20 08:35 ENE 3 10 Cloudy OVC006 74 74     100%   75 30.02        
Jul 20 08:15 Calm 10 Cloudy OVC004 73 73     100%   74 30.02        
Jul 20 07:55 Calm 10 Cloudy OVC002 72 72     100%   73 30.01        
Jul 20 07:35 Calm 4 Fog/Mist OVC002 71 71     100%   73 30.01        
Jul 20 07:15 E 6 2.5 Fog/Mist OVC002 71 71     100%   73 30        
Jul 20 06:55 NE 5 3 Fog/Mist OVC002 71 71     100%   72 29.99        
Jul 20 06:35 Calm 3 Fog/Mist OVC002 71 71     100%   72 29.99        
Jul 20 06:15 Calm 5 Fog/Mist OVC004 71 71     100%   72 29.98        
Jul 20 05:55 Calm 10 Cloudy OVC004 72 72     100%   73 29.98        
Jul 20 05:35 Calm 10 Mostly Cloudy BKN006 71 71     100%   73 29.98        
Jul 20 05:15 Calm 10 Partly Cloudy SCT006 71 71     100%   72 29.97        
Jul 20 04:55 Calm 10 Clear CLR 71 71     100%   72 29.97        
Jul 20 04:35 Calm 10 Partly Cloudy SCT009 71 71     100%   73 29.96        
Jul 20 04:15 Calm 10 Mostly Cloudy BKN009 71 71     100%   73 29.96        
Jul 20 03:55 ESE 3 10 Mostly Cloudy SCT005 BKN011 71 71     100%   73 29.96        
Jul 20 03:35 ENE 6 10 Cloudy OVC005 71 71     100%   73 29.96        
Jul 20 03:15 ENE 3 10 Cloudy OVC005 71 71     100%   73 29.95        
Jul 20 02:55 ENE 5 10 Mostly Cloudy BKN005 71 71     100%   73 29.95        
Jul 20 02:35 ENE 3 10 Clear CLR 72 72     100%   73 29.96        
May 15 05:15 Calm 10 Clear CLR 68 68     100%     29.99        
May 15 01:15 Calm 10 Clear CLR 70 70     100%     29.97        
May 14 23:35 Calm 10 Clear CLR 70 70     100%     29.98        
May 14 18:15 Calm 10 Clear CLR 85 74     70%   92 29.96        
May 14 15:15 ENE 6 10 Clear CLR 89 68     50%   93 29.98        
May 14 11:15 NE 5 10 Clear CLR 85 69     58%   89 30.05        
May 14 07:35 NNE 3 10 Clear CLR 68 65     89%     30.05        
May 13 14:55 NW 8 10 Clear CLR 89 63     42%   90 30.07        
May 13 07:55 Calm 10 Clear CLR 71 64     78%   72 30.15        
May 12 21:15 Calm 10 Clear CLR 69 66     91%     30.11        
May 12 20:55 Calm 10 Clear CLR 70 66     89%     30.11        
May 12 19:35 Calm 10 Clear CLR 76        %     30.09        
May 12 17:55 WSW 6 10 Clear CLR 87 63     46%   88 30.08        
May 12 17:15 W 7 10 Clear CLR 87 63     44%   88 30.09        
May 12 15:55 SSW 3 10 Clear   88 63     44%   89 30.11        
May 12 15:35 WSW 8 10 Clear CLR 89 64     44%   90 30.11        
May 12 02:55 Calm 10 Clear CLR 61 61     100%     30.11        
May 11 21:15 Calm 10 Clear CLR 69 65     88%     30.11        
May 11 17:15 SW 5 10 Clear CLR 86 63     47%   87 30.08        
May 11 13:35 W 3 10 Clear CLR 85 65     51%   87 30.13        
May 11 10:55 WSW 3 10 Clear CLR 81 67     62%   84 30.16        
Jun 12 07:15 Calm 10 Mostly Cloudy BKN004 74 72     94%   75 30.18        
Jun 12 05:35 Calm 10 Mostly Cloudy BKN011 70 69     96%     30.16        
Jun 12 01:15 Calm 10 Partly Cloudy SCT033 72 71     96%   74 30.15        
Jun 11 17:55 ESE 3 10 Clear CLR 85 69     60%   89 30.09        
Jun 11 16:55 SE 6 10 Clear   87 68     54%   91 30.11        
Jun 11 16:15 SE 5 10 Clear CLR 87 68     54%   91 30.13        
Jun 11 14:55 SE 6 10 Clear   86 68     54%   90 30.14        
Notice The following observation data may not be complete
Jun 11 05:15   10 Clear CLR          %              
Jun 10 10:15 SE 3 10 Clear CLR 81 62     53%   82 30.11        
Notice The following observation data may not be complete
Jun 09 16:15   10 Partly Cloudy SCT055 SCT065          %              
Jun 08 17:35 NNW 3 10 Clear CLR 80 57     46%   79 29.86        
Notice The following observation data may not be complete
Jun 08 12:15   10 Clear CLR          %              
Notice The following observation data may not be complete
Jun 08 11:15   10 Partly Cloudy SCT035          %              
Jun 08 09:15 SE 3 10 Partly Cloudy SCT041 69 60     71%     29.93        
Notice The following observation data may not be complete
Jun 08 07:55   10 Partly Cloudy SCT040 SCT090          %              
Jun 08 07:35 Calm 10 Clear CLR 65 59     83%     29.92        
Jun 07 20:55 N 5 10 Clear CLR 72 59     63%   72 29.85        
Jun 07 15:15 E 7 10 Partly Cloudy SCT032 SCT060 78 67     68%   79 29.79        
Jun 07 10:55 E 6 10 Mostly Cloudy BKN024 BKN031 76 66     73%   76 29.81        
Jun 06 03:35 Calm 5 Fog/Mist OVC004 71 71     99%   73 29.79        
Jun 06 00:55 Calm 7 Cloudy OVC002 72 71     98%   73 29.83       0
Notice The following observation data may not be complete
Jun 05 18:35   10 Partly Cloudy SCT012          %              
Jun 05 16:35 WSW 5 10 Partly Cloudy SCT018 76 71     82%   78 29.83        
Jun 05 15:15 S 9 10 Partly Cloudy SCT040 78 70     75%   80 29.81